"Pseudo-MPEC" for P10LoPB
Created 2019 Jan 14 11:18:32 UT using Find_Orb
Click here for an explanation of pseudo-MPECs
Astrometry: P10LoPB C2019 01 11qxAsh_-F!*PRON8c[yeO3TL'gN7^-Yyu59(
Astrometry\:g2l:_
F51 P10LoPB C2019 01 11;@AgGbo8FOEZO@oB#Q6j=]`XB@bZ?:!ZZw!\_pt`Ft@On5qqAaa^
F51 P10LoPB C2019 01 11bMB-SDC8nxnlrC`.nX)V?AA8AdJuLwQn
redacted;_*l(wauUlnS
F51 P10LoPB C2019 01 11*Z2r-jw(N4dgWJ;r$k'K94XI6CbG'B3-otwlWmtkXb/i2%;6pv;/
F51 P10LoPB |C2019 01 12Dj+1d]#APx2b:v+!pKw24b+F=H@?F\/QnthKo?
click#\[=XgC3g
807 P10LoPB |C2019 01 121rwY8qYNeBTSHJLK`.Cuf+ZC5`IIrAG+3e;xP8S]`W01=T5mutcU
807 P10LoPB |C2019 01 12aIsNA^i?h'LLA)6STai!6cdFZ=T?*;h#C/
herebg(*nUV68FCm^\
807 P10LoPB C2019 01 12.15426 03 51 37.39 -31 55 45.3 ~1C4I 20.3 GVNEOCPI52 P10LoPB C2019 01 12.15609 03 51 37.50 -31 55 40.4 ~1C4I 21.1 GVNEOCPI52 P10LoPB C2019 01 12.15975 03 51 37.62 -31 55 32.7 ~1C4I 20.1 GVNEOCPI52 P10LoPB KC2019 01 13]7iA^DD\-`I5kqD!a7H^*C@XLtxG/[8R7Yj[WLBru1=G0r.Gtm+w
L29 P10LoPB KC2019 01 13cchU;Y4+nE26qa!h.1a=X[0=XTCg
forpCt3,h!uV`iUrYMZ[;hl_
L29 P10LoPB KC2019 01 13?8sb2,HOtI$P0n`('3(_/+DhwndmK*_EFr+I!Zr%d\MJ?U7[q@tZ
L29 P10LoPB KC2019 01 13I8%/7K'wt\1Gau)5D
explanation78oW2*\+,^rM.eR=VXx-,Z-u
L29 Station data: (807) Cerro Tololo Observatory, La Serena (S30.169136 W70.805900) Chile. 1.5-m Ritchey-Chrétien. (F51) Pan-STARRS 1, Haleakala (N20.707235 W156.255910) US/Hawaii. Observers N. Primak, A. Schultz, S. Watters, J. Thiel, T. Goggia. Measurer PS1 Science Consortium. 1.8-m Ritchey-Chrétien + CCD. (I52) Steward Observatory, Mt. Lemmon Station (N32.442547 W110.788920) US/Arizona. Observers B. M. Africano, E. J. Christensen, G. A. Farneth, D. C. Fuls, A. R. Gibbs, A. D. Grauer, H. Groeller, J. A. Johnson, R. A. Kowalski, S. M. Larson, G. J. Leonard, R. L. Seaman, F. C. Shelly. 1.0-m reflector + CCD. (L29) Drebach-South Observatory, Windhoek (S23.460102 E18.016900) Namibia. Orbital elements: P10LoPB Perihelion 2019 Feb 6.017753 +/- 0.212 TT = 0:25:33 (JD 2458520.517753) Epoch 2019 Jan 13.0 TT = JDT 2458496.5 Earth MOID: 0.4359 AutoNEOCP M 353.97963232 +/- 0.43 (J2000 ecliptic) n 0.25066323 +/- 0.0193 Peri. 323.17232 +/- 0.29 a 2.49120208 +/- 0.128 Node 141.81543 +/- 0.6 e 0.4531291 +/- 0.0246 Incl. 30.85229 +/- 0.46 P 3.93 H 18.5 G 0.15 U 10.1 q 1.36236584 +/- 0.00994 Q 3.62003831 +/- 0.266 From 14 observations 2019 Jan. 11-13; mean residual 0".19
Residuals in arcseconds: 190111 F51 .03+ .00 190112 807 .03- .00 190113 L29 .16- .33+ 190111 F51 .09+ .07+ 190112 807 .01- .19- 190113 L29 .03+ .23- 190111 F51 .03- .02- 190112 I52 .17- .02- 190113 L29 .03- .03+ 190111 F51 .12+ .10- 190112 I52 .17+ .58+ 190113 L29 .28+ .15- 190112 807 .18+ .00 190112 I52 .41- .31- Ephemerides (geocentric): Date (UTC) HH RA Dec delta r elong mag " sig PA ---- -- -- -- ------------- ----------- ------ ------ ----- --- ---- --- 2019 01 14 11 03 53 40.330 -30 23 32.12 .75264 1.3805 104.6 20.3 .314 109 2019 01 14 12 03 53 42.685 -30 21 50.23 .75259 1.3805 104.6 20.3 .333 109 2019 01 14 13 03 53 45.044 -30 20 08.27 .75253 1.3804 104.5 20.3 .351 109 2019 01 14 14 03 53 47.409 -30 18 26.25 .75247 1.3803 104.5 20.3 .370 109 2019 01 14 15 03 53 49.778 -30 16 44.15 .75242 1.3803 104.5 20.3 .389 110 2019 01 14 16 03 53 52.151 -30 15 01.98 .75236 1.3802 104.5 20.3 .409 110 2019 01 14 17 03 53 54.529 -30 13 19.74 .75231 1.3801 104.5 20.3 .429 110 2019 01 14 18 03 53 56.912 -30 11 37.43 .75225 1.3801 104.5 20.3 .450 110 2019 01 14 19 03 53 59.300 -30 09 55.06 .75220 1.3800 104.5 20.3 .470 110 2019 01 14 20 03 54 01.692 -30 08 12.61 .75214 1.3800 104.5 20.3 .492 110 2019 01 14 21 03 54 04.088 -30 06 30.09 .75208 1.3799 104.5 20.3 .513 110 2019 01 14 22 03 54 06.490 -30 04 47.50 .75203 1.3798 104.5 20.3 .535 110 2019 01 14 23 03 54 08.896 -30 03 04.84 .75197 1.3798 104.5 20.3 .557 110 2019 01 15 00 03 54 11.306 -30 01 22.12 .75192 1.3797 104.5 20.3 .580 110 2019 01 15 01 03 54 13.722 -29 59 39.32 .75187 1.3796 104.5 20.3 .603 110 2019 01 15 02 03 54 16.141 -29 57 56.45 .75181 1.3796 104.5 20.3 .626 110 2019 01 15 03 03 54 18.566 -29 56 13.52 .75176 1.3795 104.5 20.3 .649 110 2019 01 15 04 03 54 20.995 -29 54 30.51 .75170 1.3794 104.5 20.3 .673 110 2019 01 15 05 03 54 23.429 -29 52 47.44 .75165 1.3794 104.5 20.3 .698 110 2019 01 15 06 03 54 25.867 -29 51 04.29 .75159 1.3793 104.5 20.3 .723 110 2019 01 15 07 03 54 28.310 -29 49 21.08 .75154 1.3792 104.5 20.3 .748 110 2019 01 15 08 03 54 30.757 -29 47 37.80 .75149 1.3792 104.5 20.3 .773 110 2019 01 15 09 03 54 33.209 -29 45 54.45 .75143 1.3791 104.5 20.3 .799 110 2019 01 15 10 03 54 35.666 -29 44 11.02 .75138 1.3790 104.5 20.3 .825 110 2019 01 15 11 03 54 38.127 -29 42 27.53 .75133 1.3790 104.5 20.3 .851 110 2019 01 15 12 03 54 40.593 -29 40 43.98 .75127 1.3789 104.5 20.3 .878 110 2019 01 15 13 03 54 43.063 -29 39 00.35 .75122 1.3789 104.5 20.3 .906 110 2019 01 15 14 03 54 45.539 -29 37 16.65 .75117 1.3788 104.5 20.3 .933 110 2019 01 15 15 03 54 48.018 -29 35 32.89 .75112 1.3787 104.5 20.3 .961 110 2019 01 15 16 03 54 50.502 -29 33 49.05 .75106 1.3787 104.5 20.3 .989 110 2019 01 15 17 03 54 52.991 -29 32 05.15 .75101 1.3786 104.5 20.3 1.02 110 2019 01 15 18 03 54 55.485 -29 30 21.18 .75096 1.3785 104.5 20.3 1.05 110 2019 01 15 19 03 54 57.983 -29 28 37.14 .75091 1.3785 104.5 20.3 1.08 110 2019 01 15 20 03 55 00.485 -29 26 53.04 .75085 1.3784 104.5 20.3 1.11 110 2019 01 15 21 03 55 02.992 -29 25 08.86 .75080 1.3784 104.5 20.3 1.14 110 2019 01 15 22 03 55 05.504 -29 23 24.62 .75075 1.3783 104.4 20.3 1.17 110 2019 01 15 23 03 55 08.020 -29 21 40.30 .75070 1.3782 104.4 20.3 1.20 110 2019 01 16 00 03 55 10.541 -29 19 55.92 .75065 1.3782 104.4 20.3 1.23 110 2019 01 16 01 03 55 13.067 -29 18 11.48 .75060 1.3781 104.4 20.3 1.26 110 2019 01 16 02 03 55 15.597 -29 16 26.96 .75055 1.3780 104.4 20.3 1.29 110 2019 01 16 03 03 55 18.131 -29 14 42.38 .75050 1.3780 104.4 20.3 1.32 110 2019 01 16 04 03 55 20.670 -29 12 57.72 .75044 1.3779 104.4 20.3 1.36 110 2019 01 16 05 03 55 23.214 -29 11 13.00 .75039 1.3779 104.4 20.3 1.39 110 2019 01 16 06 03 55 25.762 -29 09 28.22 .75034 1.3778 104.4 20.3 1.42 110 2019 01 16 07 03 55 28.315 -29 07 43.36 .75029 1.3777 104.4 20.3 1.46 110 2019 01 16 08 03 55 30.872 -29 05 58.44 .75024 1.3777 104.4 20.3 1.49 110 2019 01 16 09 03 55 33.434 -29 04 13.45 .75019 1.3776 104.4 20.3 1.52 110 2019 01 16 10 03 55 36.001 -29 02 28.39 .75014 1.3776 104.4 20.3 1.56 110